User: anonymous   Login
Location: Sobotiste
(48.7170°N, 17.4000°E)
Time: 00:43:19
(UTC+01:00)
Language:

BlueWalker 3 - Orbit

View from above orbital plane
View from above orbital plane
View from above satellite
View from above satellite

Ground track
Ground track

The orbit data is extracted from the following two-line orbital elements,

1 53807U 22111AL  25340.65001745  .00008785  00000-0  25949-3 0  9992
2 53807  53.2298 216.2385 0004777 316.4733  43.5894 15.35757766180591
Epoch (UTC): 06 December 2025 15:36:01
Eccentricity: 0.0004777
inclination: 53.2298°
perigee height: 455 km
apogee height: 462 km
right ascension of ascending node: 216.2385°
argument of perigee: 316.4733°
revolutions per day: 15.35757766
mean anomaly at epoch: 43.5894°
orbit number at epoch: 18059

The dashed part of the orbit path shows where the satellite is in the earth's shadow,  

DLR